This demonstration page uses our WeatherBlox Daily Observations layout. Learn more.

Left ArrowRight Arrow

34.02893, -84.19858

Hourly Observations for February 23, 2021

Temp ( °F °C ) Dew Point ( °F °C ) Humidity (%) Winds ( mph kmh ) Pressure ( in mb ) Visibility ( mi km ) Precip ( " mm )
12:53 am 00:53 Clear 42 5.6 26 -3.3 53 53 W 6 9 30.06 1018 10 16 0.00 0.00
1:53 am 01:53 Clear 42 5.6 26 -3.3 53 53 W 3 6 30.06 1018 10 16 0.00 0.00
2:53 am 02:53 Clear 41 5 27 -2.8 57 57 WSW 5 7 30.06 1018 10 16 0.00 0.00
3:53 am 03:53 Clear 39 3.9 27 -2.8 62 62 WSW 3 6 30.06 1018 10 16 0.00 0.00
4:53 am 04:53 Clear 39 3.9 27 -2.8 62 62 W 5 7 30.06 1018 10 16 0.00 0.00
5:53 am 05:53 Clear 38 3.3 26 -3.3 62 62 W 3 6 30.07 1018 10 16 0.00 0.00
6:53 am 06:53 Clear 38 3.3 26 -3.3 62 62 WSW 5 7 30.09 1019 10 16 0.00 0.00
7:53 am 07:53 Sunny 38 3.3 27 -2.8 65 65 WSW 5 7 30.11 1020 10 16 0.00 0.00
8:53 am 08:53 Sunny 45 7.2 28 -2.2 52 52 W 5 7 30.12 1020 10 16 0.00 0.00
9:53 am 09:53 Sunny 50 10 29 -1.7 44 44 W 10 17 30.11 1020 10 16 0.00 0.00
10:53 am 10:53 Sunny 55 12.8 30 -1.1 38 38 WSW 8 13 30.10 1019 10 16 0.00 0.00
11:53 am 11:53 Sunny 61 16.1 31 -0.6 32 32 WNW 13 20 30.08 1019 10 16 0.00 0.00
12:53 pm 12:53 Sunny 64 17.8 31 -0.6 29 29 WNW 10 17 30.06 1018 10 16 0.00 0.00
1:53 pm 13:53 Sunny 65 18.3 31 -0.6 28 28 W 8 13 30.03 1017 10 16 0.00 0.00
2:53 pm 14:53 Sunny 67 19.4 29 -1.7 24 24 WNW 15 24 30.02 1017 10 16 0.00 0.00
3:53 pm 15:53 Sunny 68 20 30 -1.1 24 24 W 16 26 30.01 1016 10 16 0.00 0.00
4:53 pm 16:53 Sunny 67 19.4 29 -1.7 24 24 W 14 22 30.02 1017 10 16 0.00 0.00
5:53 pm 17:53 Sunny 65 18.3 30 -1.1 27 27 W 10 17 30.04 1017 10 16 0.00 0.00
6:53 pm 18:53 Clear 61 16.1 31 -0.6 32 32 W 5 7 30.06 1018 10 16 0.00 0.00
7:53 pm 19:53 Clear 57 13.9 31 -0.6 37 37 Calm 30.08 1019 10 16 0.00 0.00
8:53 pm 20:53 Clear 51 10.6 34 1.1 52 52 Calm 30.09 1019 10 16 0.00 0.00
9:53 pm 21:53 Clear 48 8.9 34 1.1 58 58 Calm 30.09 1019 10 16 0.00 0.00
10:53 pm 22:53 Clear 45 7.2 34 1.1 66 66 Calm 30.10 1019 10 16 0.00 0.00
11:53 pm 23:53 Clear 43 6.1 34 1.1 71 71 Calm 30.10 1019 10 16 0.00 0.00

Powered by AerisWeather